Weather History for KADM - March, 2014

Change the Weather History Date:

Saturday, March 15, 2014

  Actual Average Record
Temperature  
Mean Temperature 58 °F -  
Max Temperature 66 °F 60 °F 78 °F (2003)
Min Temperature 50 °F 43 °F 28 °F (1999)
Degree Days  
Heating Degree Days 7    
Growing Degree Days 8 (Base 50)    
Moisture  
Dew Point 53 °F    
Average Humidity 90    
Maximum Humidity 100    
Minimum Humidity 79    
Precipitation  
Precipitation 0.00 in - - ()
Sea Level Pressure  
Sea Level Pressure 29.89 in    
Wind  
Wind Speed 6 mph (East)    
Max Wind Speed 13 mph    
Max Gust Speed 16 mph    
Visibility 10 miles    
Events Rain , Thunderstorm    
Averages and records for this station are not official NWS values.
T = Trace of Precipitation, MM = Missing Value Source: NWS Daily Summary

Daily Weather History Graph

Daily Weather History Graph

Search for Another Location

Airport or City:

Trip Planner

Search our weather history database for the weather conditions in past years. The results will help you decide how hot, cold, wet, or windy it might be!

Date:

Astronomy

Mar. 15, 2014 Rise Set
Actual Time 7:38 AM CDT 7:35 PM CDT
Civil Twilight 7:13 AM CDT 8:00 PM CDT
Nautical Twilight 6:44 AM CDT 8:29 PM CDT
Astronomical Twilight 6:15 AM CDT 8:59 PM CDT
Moon 6:56 PM CDT (3/15) 6:49 AM CDT (3/15)
Length of Visible Light 12h 47m
Length of Day
11h 57m
Waxing Gibbous, 99% of the Moon is Illuminated
Mar 15
Waxing Gibbous
Mar 16
Full
Mar 23
Last Quarter
Mar 30
New
Apr 7
First Quarter

Hourly Weather History & Observations

Time (CDT) Temp. Dew Point Humidity Pressure Visibility Wind Dir Wind Speed Gust Speed Precip Events Conditions
12:15 AM 56.3 °F 50.0 °F 79% 29.99 in 10.0 mi East 5.8 mph - N/A   Clear
12:35 AM 56.5 °F 50.5 °F 80% 29.98 in 10.0 mi East 5.8 mph - N/A   Clear
12:55 AM 56.5 °F 51.3 °F 83% 29.98 in 10.0 mi East 5.8 mph - N/A   Clear
1:15 AM 56.3 °F 51.6 °F 84% 29.97 in 10.0 mi East 5.8 mph - N/A   Clear
1:35 AM 56.3 °F 51.8 °F 85% 29.97 in 10.0 mi ESE 4.6 mph - N/A   Clear
1:55 AM 55.9 °F 51.8 °F 86% 29.97 in 10.0 mi East 4.6 mph - N/A   Clear
2:15 AM 55.6 °F 51.8 °F 87% 29.97 in 10.0 mi ESE 5.8 mph - N/A   Clear
2:35 AM 55.6 °F 51.8 °F 87% 29.97 in 10.0 mi East 6.9 mph - N/A   Clear
2:55 AM 55.4 °F 51.8 °F 88% 29.96 in 10.0 mi East 4.6 mph - N/A   Clear
3:15 AM 55.6 °F 52.0 °F 88% 29.95 in 10.0 mi ESE 5.8 mph - N/A   Clear
3:35 AM 55.6 °F 52.0 °F 88% 29.94 in 10.0 mi ESE 6.9 mph - N/A   Clear
3:55 AM 55.6 °F 52.0 °F 88% 29.94 in 10.0 mi ESE 6.9 mph - N/A   Clear
4:15 AM 55.6 °F 52.0 °F 88% 29.93 in 10.0 mi ESE 5.8 mph - N/A   Clear
4:35 AM 55.4 °F 52.0 °F 88% 29.92 in 10.0 mi East 4.6 mph - N/A   Clear
4:55 AM 55.6 °F 52.2 °F 88% 29.92 in 10.0 mi ESE 5.8 mph - N/A   Clear
5:15 AM 55.4 °F 52.0 °F 88% 29.92 in 10.0 mi ESE 5.8 mph - N/A   Clear
5:35 AM 55.0 °F 51.8 °F 89% 29.92 in 10.0 mi East 4.6 mph - N/A   Clear
5:55 AM 54.7 °F 51.8 °F 90% 29.92 in 10.0 mi ESE 4.6 mph - N/A   Clear
6:15 AM 54.7 °F 51.8 °F 90% 29.92 in 10.0 mi ESE 4.6 mph - N/A   Clear
6:35 AM 54.5 °F 51.8 °F 91% 29.92 in 10.0 mi ESE 5.8 mph - N/A   Clear
6:55 AM 53.6 °F 51.8 °F 94% 29.92 in 10.0 mi East 4.6 mph - N/A   Clear
7:55 AM 55.4 °F 53.6 °F 94% 29.91 in 10.0 mi ESE 8.1 mph - N/A   Overcast
8:55 AM 57.2 °F 55.4 °F 94% 29.92 in 10.0 mi ESE 5.8 mph - N/A   Overcast
9:55 AM 59.0 °F 57.2 °F 94% 29.92 in 10.0 mi East 5.8 mph - N/A   Overcast
10:55 AM 60.8 °F 59.0 °F 94% 29.90 in 7.0 mi Calm Calm - N/A Rain Light Rain
11:55 AM 62.6 °F 59.0 °F 88% 29.87 in 7.0 mi South 3.5 mph - N/A   Overcast
12:55 PM 66.2 °F 60.8 °F 83% 29.86 in 10.0 mi SE 8.1 mph - N/A Thunderstorm Overcast
1:55 PM 66.2 °F 60.8 °F 83% 29.81 in 10.0 mi SE 11.5 mph - N/A   Overcast
2:55 PM 59.0 °F 57.2 °F 94% 29.77 in 10.0 mi East 6.9 mph - N/A   Overcast
3:55 PM 59.0 °F 59.0 °F 100% 29.74 in 10.0 mi NNE 12.7 mph 16.1 mph N/A   Scattered Clouds
10:15 PM 52.3 °F 51.6 °F 97% 29.73 in 10.0 mi West 4.6 mph - N/A   Clear
10:35 PM 50.9 °F 50.2 °F 97% 29.76 in 10.0 mi NW 3.5 mph - N/A   Clear
10:55 PM 51.1 °F 50.7 °F 99% 29.77 in 10.0 mi NNW 4.6 mph - N/A   Clear
11:15 PM 50.9 °F 50.5 °F 99% 29.77 in 10.0 mi NNW 3.5 mph - N/A   Scattered Clouds
11:35 PM 52.0 °F 51.8 °F 99% 29.77 in 10.0 mi NNE 4.6 mph - N/A   Mostly Cloudy
11:55 PM 52.9 °F 52.3 °F 98% 29.77 in 10.0 mi North 3.5 mph - N/A   Scattered Clouds